Starlink 33630

operational
NORAD ID: 63477 Int'l Des: 2025-070 Owner: SPXS Country: US Constellation: starlink
LEOCIRCULAR

Über Starlink 33630

Beschreibung wird geladen...

Live-Position

3D-Globus wird geladen...

Nächste Überflüge

Höhenverlauf

Altitude vs Time

uPlot chart will show altitude changes over time

Zweizeiliger Elementsatz

1 63477U 25070T 25354.02288373 .00027291 00000-0 99732-3 0 9997
2 63477 43.0023 346.1281 0001717 280.3626 79.7032 15.27588439 40834
Epoch: 20. Dez. 2025 • Age: 13 hours

Aktueller Status

Höhe 483.7 km
Geschwindigkeit 7.63 km/s
Subsatellitenpunkt 27.35°N, 87.93°E
Startdatum 6. Apr. 2025
Alter 0.7 years
Typ internet

Technische Details

Klassifizierung Payload
Masse 575.00 kg
Trockenmasse 530.00 kg
Gesamtmasse 575.00 kg
Länge 0.30 m
Durchmesser 4.10 m
Spannweite 29.00 m
Form Box + pan
Hersteller SPXS
Bus-Typ Starlink V2MO
Phasenstatus In Orbit
Besitzer/Staat SPXS/US

Große Konstellationen

Loading constellations...